Weather History for KSGJ - September, 2014

Change the Weather History Date:

Friday, September 19, 2014

  Actual Average Record
Temperature  
Mean Temperature 78 °F -  
Max Temperature 84 °F 83 °F 94 °F (1987)
Min Temperature 73 °F 71 °F 51 °F (1981)
Cooling Degree Days 14    
Growing Degree Days 28 (Base 50)    
Moisture  
Dew Point 72 °F    
Average Humidity 81    
Maximum Humidity 94    
Minimum Humidity 65    
Precipitation  
Precipitation 0.29 in - - ()
Sea Level Pressure  
Sea Level Pressure 29.99 in    
Wind  
Wind Speed 5 mph (NNE)    
Max Wind Speed 18 mph    
Max Gust Speed 28 mph    
Visibility 10 miles    
Events Rain    
Averages and records for this station are not official NWS values.
T = Trace of Precipitation, MM = Missing Value Source: NWS Daily Summary

Daily Weather History Graph

Daily Weather History Graph

Search for Another Location

Airport or City:

Trip Planner

Search our weather history database for the weather conditions in past years. The results will help you decide how hot, cold, wet, or windy it might be!

Date:

Astronomy

Sep. 19, 2014 Rise Set
Actual Time 7:12 AM EDT 7:25 PM EDT
Civil Twilight 6:48 AM EDT 7:49 PM EDT
Nautical Twilight 6:20 AM EDT 8:17 PM EDT
Astronomical Twilight 5:52 AM EDT 8:45 PM EDT
Moon 3:10 AM EDT (9/19) 4:40 PM EDT (9/19)
Length of Visible Light 13h 01m
Length of Day
12h 13m
Waning Crescent, 18% of the Moon is Illuminated
Sep 19
Waning Crescent
Sep 24
New
Oct 1
First Quarter
Oct 8
Full
Oct 15
Last Quarter

Hourly Weather History & Observations

Time (EDT) Temp. Heat Index Dew Point Humidity Pressure Visibility Wind Dir Wind Speed Gust Speed Precip Events Conditions
1:58 AM 75.0 °F - 72.0 °F 90% 29.95 in 10.0 mi Calm Calm - N/A   Clear
2:58 AM 73.9 °F - 71.1 °F 91% 29.94 in 10.0 mi Calm Calm - N/A   Clear
3:58 AM 73.9 °F - 71.1 °F 91% 29.94 in 10.0 mi WNW 3.5 mph - N/A   Clear
4:58 AM 73.0 °F - 71.1 °F 93% 29.95 in 10.0 mi Variable 3.5 mph - N/A   Clear
5:58 AM 73.9 °F - 71.1 °F 91% 29.95 in 10.0 mi Calm Calm - N/A   Clear
6:58 AM 73.9 °F - 71.1 °F 91% 29.97 in 10.0 mi NNW 3.5 mph - N/A   Scattered Clouds
7:58 AM 75.0 °F - 73.0 °F 94% 29.99 in 10.0 mi Calm Calm - N/A   Clear
8:58 AM 77.0 °F - 73.9 °F 90% 30.00 in 10.0 mi NNW 3.5 mph - N/A   Partly Cloudy
9:58 AM 82.9 °F 88.8 °F 73.0 °F 72% 30.00 in 10.0 mi East 8.1 mph - N/A   Mostly Cloudy
10:08 AM 84.2 °F 90.9 °F 73.4 °F 70% 30.00 in 10.0 mi East 9.2 mph - N/A   Mostly Cloudy
10:58 AM 84.9 °F 91.4 °F 73.0 °F 67% 30.01 in 10.0 mi East 8.1 mph - N/A   Scattered Clouds
11:58 AM 84.9 °F 90.7 °F 72.0 °F 65% 30.02 in 10.0 mi East 8.1 mph - N/A   Scattered Clouds
12:58 PM 84.0 °F 89.6 °F 72.0 °F 67% 30.02 in 10.0 mi East 8.1 mph - N/A   Partly Cloudy
1:22 PM 82.4 °F 86.3 °F 69.8 °F 66% 30.00 in 10.0 mi NNE 15.0 mph - N/A   Mostly Cloudy
1:33 PM 77.0 °F - 69.8 °F 78% 30.00 in 10.0 mi North 10.4 mph - N/A   Overcast
1:58 PM 80.1 °F 84.2 °F 73.0 °F 79% 30.00 in 10.0 mi NNW 3.5 mph - N/A   Scattered Clouds
2:58 PM 84.0 °F 90.2 °F 73.0 °F 69% 29.99 in 7.0 mi ENE 9.2 mph - N/A   Mostly Cloudy
3:42 PM 82.4 °F 87.2 °F 71.6 °F 70% 29.98 in 10.0 mi SE 11.5 mph - N/A   Mostly Cloudy
3:58 PM 80.1 °F 83.8 °F 72.0 °F 76% 29.97 in 4.0 mi SE 12.7 mph 21.9 mph 0.00 in Rain Light Rain
4:58 PM 77.0 °F - 73.9 °F 90% 29.98 in 10.0 mi NW 3.5 mph - 0.00 in Rain Light Rain
5:18 PM 77.0 °F - 73.4 °F 89% 29.98 in 10.0 mi North 4.6 mph - 0.01 in Rain Light Rain
5:35 PM 78.8 °F - 73.4 °F 83% 29.98 in 10.0 mi North 5.8 mph - 0.02 in Rain Light Rain
5:58 PM 77.0 °F - 72.0 °F 84% 29.98 in 10.0 mi North 5.8 mph - 0.03 in   Mostly Cloudy
6:58 PM 77.0 °F - 73.0 °F 88% 29.98 in 10.0 mi North 3.5 mph - 0.00 in Rain Light Rain
7:58 PM 80.1 °F 84.2 °F 73.0 °F 79% 29.99 in 10.0 mi ENE 10.4 mph - 0.00 in   Overcast
8:58 PM 80.1 °F 84.2 °F 73.0 °F 79% 29.99 in 10.0 mi ENE 13.8 mph - N/A   Scattered Clouds
9:22 PM 78.8 °F - 69.8 °F 74% 29.99 in 10.0 mi North 16.1 mph 25.3 mph N/A   Mostly Cloudy
9:29 PM 77.0 °F - 66.2 °F 69% 30.00 in 10.0 mi North 8.1 mph - N/A   Overcast
9:58 PM 79.0 °F - 72.0 °F 79% 30.00 in 10.0 mi East 12.7 mph - N/A   Mostly Cloudy
10:49 PM 77.0 °F - 69.8 °F 78% 30.01 in 10.0 mi NE 18.4 mph 27.6 mph N/A   Overcast
10:58 PM 73.9 °F - 70.0 °F 87% 30.02 in 4.0 mi NNE 12.7 mph - 0.11 in Rain Heavy Rain
11:18 PM 73.4 °F - 69.8 °F 88% 30.02 in 10.0 mi North 3.5 mph - 0.08 in Rain Light Rain
11:58 PM 73.0 °F - 68.0 °F 84% 30.02 in 7.0 mi SE 4.6 mph - 0.15 in Rain Light Rain